[Date Prev][Date Next][Thread Prev][Thread Next] - [Date Index][Thread Index][Author Index]

MIR & ISS Keps 5-21



MIR
1 16609U 86017A   99141.84143391  .00019963  00000-0  15746-3 0  5137
2 16609  51.6612 118.8270 0006716 125.2311 234.9064 15.71396011757266
ISS
1 25544U 98067A   99141.81091713  .00011470  00000-0  13797-3 0  5982
2 25544  51.5926 330.6648 0004300 129.0347 231.0966 15.61346968 28481


----
Via the sarex mailing list at AMSAT.ORG courtesy of AMSAT-NA.
To unsubscribe, send "unsubscribe sarex" to Majordomo@amsat.org



AMSAT Top AMSAT Home